Location: Wapato
(46.4478°N, 120.4212°W)
Time: 22:56:56
(UTC+00:00)

S-56A Canister/Altair - Pass Details

Date: 16 May 2026
Orbit: 633 x 2484 km, 38.9° (Epoch: 7 June)

Event Time Altitude Azimuth Distance (km) Brightness Sun altitude
Rises 05:46:22 0° 248° (WSW) 2,944 10.7 -18.0°
Reaches altitude 10° 05:48:48 10° 238° (WSW) 2,006 9.7 -18.2°
Enters shadow 05:52:18 32° 187° (S) 1,115 7.9 -18.5°
